Time,TemperatureF,DewpointF,PressureIn,WindDirection,WindDirectionDegrees,WindSpeedMPH,WindSpeedGustMPH,Humidity,HourlyPrecipIn,Conditions,Clouds,dailyrainin,SoftwareType,DateUTC
2016-02-10 00:02:00,10.2,3.0,30.11,West,272,5.0,16.0,72,0.00,,,0.00,meteohub,2016-02-10 06:02:00,
2016-02-10 00:07:00,10.2,3.0,30.11,NW,317,9.0,16.0,72,0.00,,,0.00,meteohub,2016-02-10 06:07:00,
2016-02-10 00:12:00,10.0,3.2,30.11,NNW,332,9.0,17.0,73,0.00,,,0.00,meteohub,2016-02-10 06:12:00,
2016-02-10 00:17:00,10.0,3.2,30.11,NW,320,5.0,17.0,73,0.00,,,0.00,meteohub,2016-02-10 06:17:00,
2016-02-10 00:22:00,10.0,3.4,30.11,NNW,338,9.0,17.0,74,0.00,,,0.00,meteohub,2016-02-10 06:22:00,
2016-02-10 00:27:00,9.9,3.6,30.11,NW,312,6.0,14.0,75,0.00,,,0.00,meteohub,2016-02-10 06:27:00,
2016-02-10 00:32:00,9.9,3.6,30.11,WNW,284,4.0,15.0,75,0.00,,,0.00,meteohub,2016-02-10 06:32:00,
2016-02-10 00:37:00,9.9,3.6,30.11,NNW,337,6.0,15.0,75,0.00,,,0.00,meteohub,2016-02-10 06:37:00,
2016-02-10 00:47:00,9.9,3.6,30.11,NW,314,6.0,16.0,75,0.00,,,0.00,meteohub,2016-02-10 06:47:00,
2016-02-10 00:52:00,9.9,3.6,30.11,NW,322,5.0,16.0,75,0.00,,,0.00,meteohub,2016-02-10 06:52:00,
2016-02-10 00:57:00,9.9,3.7,30.11,NNW,327,8.0,16.0,76,0.00,,,0.00,meteohub,2016-02-10 06:57:00,
2016-02-10 01:02:00,9.7,3.6,30.10,NW,326,6.0,16.0,76,0.00,,,0.00,meteohub,2016-02-10 07:02:00,
2016-02-10 01:07:00,9.9,3.6,30.10,WNW,295,4.0,14.0,75,0.00,,,0.00,meteohub,2016-02-10 07:07:00,
2016-02-10 01:12:00,9.9,3.2,30.10,NW,323,8.0,16.0,74,0.00,,,0.00,meteohub,2016-02-10 07:12:00,
2016-02-10 01:17:00,9.9,3.0,30.10,NW,320,6.0,16.0,73,0.00,,,0.00,meteohub,2016-02-10 07:17:00,
2016-02-10 01:22:00,9.9,3.0,30.10,NW,318,9.0,16.0,73,0.00,,,0.00,meteohub,2016-02-10 07:22:00,
2016-02-10 01:27:00,9.9,2.7,30.09,NNW,334,4.0,14.0,72,0.00,,,0.00,meteohub,2016-02-10 07:27:00,
2016-02-10 01:32:00,9.9,2.7,30.09,NW,312,11.0,15.0,72,0.00,,,0.00,meteohub,2016-02-10 07:32:00,
2016-02-10 01:37:00,9.9,2.1,30.09,NW,317,3.0,16.0,70,0.00,,,0.00,meteohub,2016-02-10 07:37:00,
2016-02-10 01:47:00,9.9,1.8,30.09,NNW,330,10.0,16.0,69,0.00,,,0.00,meteohub,2016-02-10 07:47:00,
2016-02-10 01:52:00,9.9,1.8,30.09,NW,311,5.0,21.0,69,0.00,,,0.00,meteohub,2016-02-10 07:52:00,
2016-02-10 01:57:00,9.9,1.4,30.09,NW,316,7.0,21.0,68,0.00,,,0.00,meteohub,2016-02-10 07:57:00,
2016-02-10 02:02:00,10.0,1.9,30.10,NNW,337,9.0,21.0,69,0.00,,,0.00,meteohub,2016-02-10 08:02:00,
2016-02-10 02:07:00,10.0,1.9,30.10,NW,320,13.0,15.0,69,0.00,,,0.00,meteohub,2016-02-10 08:07:00,
2016-02-10 02:12:00,9.9,2.1,30.10,NW,313,11.0,19.0,70,0.00,,,0.00,meteohub,2016-02-10 08:12:00,
2016-02-10 02:17:00,9.9,2.3,30.11,NNW,339,8.0,19.0,71,0.00,,,0.00,meteohub,2016-02-10 08:17:00,
2016-02-10 02:22:00,9.9,2.3,30.11,WNW,302,4.0,19.0,71,0.00,,,0.00,meteohub,2016-02-10 08:22:00,
2016-02-10 02:27:00,9.9,2.3,30.11,NW,314,6.0,17.0,71,0.00,,,0.00,meteohub,2016-02-10 08:27:00,
2016-02-10 02:32:00,9.7,2.5,30.12,NW,309,10.0,18.0,72,0.00,,,0.00,meteohub,2016-02-10 08:32:00,
2016-02-10 02:37:00,9.3,2.7,30.12,NW,308,13.0,18.0,74,0.00,,,0.00,meteohub,2016-02-10 08:37:00,
2016-02-10 02:42:00,9.0,2.3,30.12,NNW,337,16.0,18.0,74,0.00,,,0.00,meteohub,2016-02-10 08:42:00,
2016-02-10 02:47:00,9.0,2.3,30.12,NW,322,7.0,19.0,74,0.00,,,0.00,meteohub,2016-02-10 08:47:00,
2016-02-10 02:52:00,9.0,2.7,30.11,NNW,328,8.0,19.0,75,0.00,,,0.00,meteohub,2016-02-10 08:52:00,
2016-02-10 02:57:00,8.8,2.1,30.11,WNW,302,14.0,19.0,74,0.00,,,0.00,meteohub,2016-02-10 08:57:00,
2016-02-10 03:02:00,8.8,2.5,30.10,NW,320,7.0,17.0,75,0.00,,,0.00,meteohub,2016-02-10 09:02:00,
2016-02-10 03:07:00,8.4,2.1,30.10,NW,322,9.0,17.0,75,0.00,,,0.00,meteohub,2016-02-10 09:07:00,
2016-02-10 03:22:00,8.4,2.1,30.10,West,280,8.0,14.0,75,0.00,,,0.00,meteohub,2016-02-10 09:22:00,
2016-02-10 03:27:00,8.2,1.9,30.10,NW,307,6.0,16.0,75,0.00,,,0.00,meteohub,2016-02-10 09:27:00,
2016-02-10 03:32:00,8.2,1.9,30.10,NW,311,13.0,16.0,75,0.00,,,0.00,meteohub,2016-02-10 09:32:00,
2016-02-10 03:37:00,8.1,1.8,30.10,WNW,303,9.0,16.0,75,0.00,,,0.00,meteohub,2016-02-10 09:37:00,
2016-02-10 03:42:00,8.1,1.8,30.10,NNW,344,11.0,16.0,75,0.00,,,0.00,meteohub,2016-02-10 09:42:00,
2016-02-10 03:47:00,7.9,1.6,30.10,NW,324,10.0,17.0,75,0.00,,,0.00,meteohub,2016-02-10 09:47:00,
2016-02-10 03:52:00,7.9,1.6,30.10,NNW,329,11.0,17.0,75,0.00,,,0.00,meteohub,2016-02-10 09:52:00,
2016-02-10 03:57:00,7.9,1.9,30.11,WNW,298,11.0,17.0,76,0.00,,,0.00,meteohub,2016-02-10 09:57:00,
2016-02-10 04:02:00,7.9,1.6,30.10,NW,310,8.0,17.0,75,0.00,,,0.00,meteohub,2016-02-10 10:02:00,
2016-02-10 04:07:00,7.7,1.4,30.10,NW,323,8.0,17.0,75,0.00,,,0.00,meteohub,2016-02-10 10:07:00,
2016-02-10 04:12:00,7.7,1.4,30.10,NW,314,10.0,18.0,75,0.00,,,0.00,meteohub,2016-02-10 10:12:00,
2016-02-10 04:17:00,7.9,1.6,30.11,NW,312,9.0,18.0,75,0.00,,,0.00,meteohub,2016-02-10 10:17:00,
2016-02-10 04:22:00,7.9,1.6,30.11,NW,319,6.0,18.0,75,0.00,,,0.00,meteohub,2016-02-10 10:22:00,
2016-02-10 04:27:00,7.9,1.6,30.11,NW,305,15.0,16.0,75,0.00,,,0.00,meteohub,2016-02-10 10:27:00,
2016-02-10 04:32:00,7.9,1.4,30.11,WNW,299,14.0,17.0,74,0.00,,,0.00,meteohub,2016-02-10 10:32:00,
2016-02-10 04:37:00,7.9,1.4,30.11,NW,310,12.0,17.0,74,0.00,,,0.00,meteohub,2016-02-10 10:37:00,
2016-02-10 04:42:00,7.7,1.2,30.11,WNW,301,15.0,17.0,74,0.00,,,0.00,meteohub,2016-02-10 10:42:00,
2016-02-10 04:47:00,7.5,1.0,30.11,NW,308,7.0,17.0,74,0.00,,,0.00,meteohub,2016-02-10 10:47:00,
2016-02-10 04:52:00,7.5,1.0,30.11,WNW,299,12.0,17.0,74,0.00,,,0.00,meteohub,2016-02-10 10:52:00,
2016-02-10 04:57:00,7.5,1.0,30.11,NW,316,8.0,16.0,74,0.00,,,0.00,meteohub,2016-02-10 10:57:00,
2016-02-10 05:02:00,7.3,0.9,30.11,NW,321,7.0,16.0,74,0.00,,,0.00,meteohub,2016-02-10 11:02:00,
2016-02-10 05:07:00,7.3,0.9,30.11,NW,311,10.0,15.0,74,0.00,,,0.00,meteohub,2016-02-10 11:07:00,
2016-02-10 05:12:00,7.2,0.7,30.10,NW,316,11.0,14.0,74,0.00,,,0.00,meteohub,2016-02-10 11:12:00,
2016-02-10 05:17:00,7.2,0.7,30.10,NW,306,6.0,17.0,74,0.00,,,0.00,meteohub,2016-02-10 11:17:00,
2016-02-10 05:22:00,7.0,0.5,30.10,NW,313,9.0,17.0,74,0.00,,,0.00,meteohub,2016-02-10 11:22:00,
2016-02-10 05:27:00,6.8,0.3,30.10,NW,310,10.0,17.0,74,0.00,,,0.00,meteohub,2016-02-10 11:27:00,
2016-02-10 05:32:00,6.4,0.0,30.10,NW,325,7.0,15.0,74,0.00,,,0.00,meteohub,2016-02-10 11:32:00,
2016-02-10 05:37:00,6.3,-0.2,30.10,NW,315,11.0,15.0,74,0.00,,,0.00,meteohub,2016-02-10 11:37:00,
2016-02-10 05:42:00,6.3,-0.2,30.10,NW,309,13.0,15.0,74,0.00,,,0.00,meteohub,2016-02-10 11:42:00,
2016-02-10 05:47:00,6.3,0.0,30.10,NW,309,14.0,15.0,75,0.00,,,0.00,meteohub,2016-02-10 11:47:00,
2016-02-10 05:52:00,6.1,-0.4,30.11,NW,316,14.0,15.0,74,0.00,,,0.00,meteohub,2016-02-10 11:52:00,
2016-02-10 05:57:00,5.7,-0.4,30.11,NW,322,11.0,16.0,75,0.00,,,0.00,meteohub,2016-02-10 11:57:00,
2016-02-10 06:02:00,5.5,-0.6,30.11,NW,312,14.0,16.0,75,0.00,,,0.00,meteohub,2016-02-10 12:02:00,
2016-02-10 06:07:00,5.5,-0.6,30.11,NW,306,11.0,16.0,75,0.00,,,0.00,meteohub,2016-02-10 12:07:00,
2016-02-10 06:12:00,5.4,-0.8,30.12,NW,309,15.0,18.0,75,0.00,,,0.00,meteohub,2016-02-10 12:12:00,
2016-02-10 06:17:00,5.2,-0.9,30.12,NW,312,10.0,18.0,75,0.00,,,0.00,meteohub,2016-02-10 12:17:00,
2016-02-10 06:22:00,5.2,-0.9,30.12,NW,312,6.0,18.0,75,0.00,,,0.00,meteohub,2016-02-10 12:22:00,
2016-02-10 06:27:00,5.0,-1.1,30.12,NW,324,11.0,21.0,75,0.00,,,0.00,meteohub,2016-02-10 12:27:00,
2016-02-10 06:32:00,5.0,-1.1,30.12,NW,320,9.0,21.0,75,0.00,,,0.00,meteohub,2016-02-10 12:32:00,
2016-02-10 06:37:00,5.0,-1.1,30.13,NW,319,9.0,18.0,75,0.00,,,0.00,meteohub,2016-02-10 12:37:00,
2016-02-10 06:42:00,4.8,-1.3,30.13,NW,309,6.0,18.0,75,0.00,,,0.00,meteohub,2016-02-10 12:42:00,
2016-02-10 06:47:00,4.6,-1.5,30.13,NW,312,15.0,18.0,75,0.00,,,0.00,meteohub,2016-02-10 12:47:00,
2016-02-10 06:52:00,4.5,-1.7,30.13,WNW,303,16.0,17.0,75,0.00,,,0.00,meteohub,2016-02-10 12:52:00,
2016-02-10 06:57:00,4.5,-1.5,30.13,NW,310,15.0,17.0,76,0.00,,,0.00,meteohub,2016-02-10 12:57:00,
2016-02-10 07:02:00,4.3,-1.7,30.13,NW,326,12.0,19.0,76,0.00,,,0.00,meteohub,2016-02-10 13:02:00,
2016-02-10 07:07:00,4.3,-1.7,30.13,NW,322,11.0,19.0,76,0.00,,,0.00,meteohub,2016-02-10 13:07:00,
2016-02-10 07:12:00,4.1,-1.8,30.13,NW,315,6.0,19.0,76,0.00,,,0.00,meteohub,2016-02-10 13:12:00,
2016-02-10 07:17:00,4.1,-1.8,30.13,NW,310,12.0,19.0,76,0.00,,,0.00,meteohub,2016-02-10 13:17:00,
2016-02-10 07:22:00,3.9,-2.0,30.13,NW,309,13.0,19.0,76,0.00,,,0.00,meteohub,2016-02-10 13:22:00,
2016-02-10 07:27:00,3.9,-2.0,30.14,NNW,328,8.0,19.0,76,0.00,,,0.00,meteohub,2016-02-10 13:27:00,
2016-02-10 07:37:00,3.7,-2.2,30.14,NW,318,18.0,18.0,76,0.00,,,0.00,meteohub,2016-02-10 13:37:00,
2016-02-10 07:42:00,3.9,-2.0,30.14,NW,310,13.0,19.0,76,0.00,,,0.00,meteohub,2016-02-10 13:42:00,
2016-02-10 07:47:00,3.9,-2.0,30.15,NW,308,12.0,19.0,76,0.00,,,0.00,meteohub,2016-02-10 13:47:00,
2016-02-10 07:52:00,3.9,-2.0,30.15,WNW,296,9.0,19.0,76,0.00,,,0.00,meteohub,2016-02-10 13:52:00,
2016-02-10 07:57:00,3.9,-2.0,30.15,NW,307,9.0,19.0,76,0.00,,,0.00,meteohub,2016-02-10 13:57:00,
2016-02-10 08:07:00,3.9,-2.0,30.15,NW,310,11.0,18.0,76,0.00,,,0.00,meteohub,2016-02-10 14:07:00,
2016-02-10 08:12:00,4.1,-1.8,30.15,NW,326,7.0,19.0,76,0.00,,,0.00,meteohub,2016-02-10 14:12:00,
2016-02-10 08:17:00,4.3,-1.8,30.15,NW,308,10.0,19.0,75,0.00,,,0.00,meteohub,2016-02-10 14:17:00,
2016-02-10 08:22:00,4.3,-1.7,30.16,NW,314,9.0,15.0,76,0.00,,,0.00,meteohub,2016-02-10 14:22:00,